Location: Unspecified
(47.6579°N, 23.5637°E)
Time: 12:34:08
(UTC+02:00)

Envisat - Pass Details

Date: 04 December 2021
Orbit: 764 x 766 km, 98.2° (Epoch: 23 January)

Event Time Altitude Azimuth Distance (km) Brightness Sun altitude
Rises 04:11:54 0° 28° (NNE) 3,244 6.6 -36.9°
Reaches altitude 10° 04:15:02 10° 48° (NE) 2,311 6.0 -36.4°
Maximum altitude 04:18:20 17° 89° (E) 1,852 5.6 -35.9°
Drops below altitude 10° 04:21:38 10° 130° (SE) 2,299 5.9 -35.3°
Sets 04:24:43 0° 150° (SSE) 3,219 6.5 -34.8°
